This demonstration page uses our WeatherBlox Daily Observations layout. Learn more.

40.92945, -100.16068

Hourly Observations for January 12, 2015

Temp ( °F °C ) Dew Point ( °F °C ) Humidity (%) Winds ( mph kmh ) Pressure ( in mb ) Visibility ( mi km ) Precip ( " mm )
12:15 am 00:15 Clear 14 -9.9 9 -13 78 78 N 10 17 30.59 1036 10 16.0934 N/A
12:35 am 00:35 Mostly Cloudy 15 -9.5 10 -12.5 79 79 N 12 19 30.59 1036 10 16.0934 N/A
12:55 am 00:55 Cloudy 15 -9.5 10 -12.4 80 80 N 14 22 30.59 1036 10 16.0934 N/A
1:15 am 01:15 Mostly Cloudy 14 -9.9 9 -12.8 80 80 N 14 22 30.59 1036 10 16.0934 N/A
1:35 am 01:35 Cloudy 15 -9.6 9 -12.7 78 78 NNW 8 13 30.59 1036 10 16.0934 N/A
1:55 am 01:55 Cloudy 15 -9.2 10 -12.5 77 77 NNW 9 15 30.62 1037 10 16.0934 N/A
2:15 am 02:15 Cloudy 16 -8.7 9 -12.6 74 74 N 12 19 30.62 1037 10 16.0934 N/A
2:35 am 02:35 Cloudy 17 -8.4 9 -13 70 70 N 12 19 30.62 1037 10 16.0934 N/A
2:55 am 02:55 Cloudy 17 -8.1 8 -13.3 67 67 N 13 20 30.65 1038 10 16.0934 N/A
3:15 am 03:15 Cloudy 18 -8 9 -12.7 69 69 N 15 24 30.65 1038 10 16.0934 N/A
3:35 am 03:35 Cloudy 18 -8 9 -12.6 70 70 N 12 19 30.68 1039 10 16.0934 N/A
3:55 am 03:55 Cloudy 18 -8 9 -13 68 68 N 10 17 30.68 1039 10 16.0934 N/A
4:15 am 04:15 Cloudy 18 -8 8 -13.6 64 64 N 14 22 30.68 1039 10 16.0934 N/A
4:35 am 04:35 Cloudy 18 -8 8 -13.6 64 64 N 13 20 30.68 1039 10 16.0934 N/A
4:55 am 04:55 Cloudy 18 -8 7 -13.7 64 64 N 15 24 30.68 1039 10 16.0934 N/A
5:15 am 05:15 Cloudy 18 -8 8 -13.2 67 67 N 14 22 30.68 1039 10 16.0934 N/A
5:35 am 05:35 Cloudy 18 -8 9 -13 68 68 NNE 14 22 30.68 1039 10 16.0934 N/A
5:55 am 05:55 Cloudy 17 -8.1 9 -13 68 68 N 14 22 30.71 1040 10 16.0934 N/A
6:15 am 06:15 Cloudy 17 -8.1 9 -12.6 70 70 N 15 24 30.71 1040 10 16.0934 N/A
6:35 am 06:35 Cloudy 17 -8.3 9 -12.8 70 70 NNE 16 26 30.71 1040 10 16.0934 N/A
6:55 am 06:55 Cloudy 17 -8.5 9 -12.9 71 71 NNE 15 24 30.71 1040 10 16.0934 N/A
7:15 am 07:15 Cloudy 16 -8.8 9 -12.9 73 73 NNE 14 22 30.77 1042 10 16.0934 N/A
7:35 am 07:35 Partly Cloudy 16 -8.9 9 -13 72 72 NNE 14 22 30.77 1042 10 16.0934 N/A
7:55 am 07:55 Clear 16 -9 9 -13 73 73 NNE 10 17 30.77 1042 10 16.0934 N/A
8:15 am 08:15 Partly Cloudy 15 -9.2 9 -12.9 75 75 NNE 10 17 30.8 1043 10 16.0934 N/A
8:35 am 08:35 Mostly Cloudy 16 -9 9 -12.6 75 75 N 9 15 30.8 1043 10 16.0934 N/A
8:55 am 08:55 Mostly Cloudy 16 -8.8 9 -12.6 74 74 N 10 17 30.8 1043 10 16.0934 N/A
9:15 am 09:15 Partly Cloudy 17 -8.2 10 -12.4 72 72 N 10 17 30.77 1042 10 16.0934 N/A
9:35 am 09:35 Sunny 19 -7.5 10 -12.2 69 69 N 10 17 30.8 1043 10 16.0934 N/A
9:55 am 09:55 Sunny 19 -7 10 -12.1 67 67 N 13 20 30.8 1043 10 16.0934 N/A
10:15 am 10:15 Sunny 18 -7.7 8 -13.2 65 65 N 10 17 30.8 1043 10 16.0934 N/A
10:35 am 10:35 Sunny 19 -7.5 8 -13.2 64 64 N 10 17 30.8 1043 10 16.0934 N/A
10:55 am 10:55 Sunny 19 -7.5 8 -13.3 64 64 N 10 17 30.83 1044 10 16.0934 N/A
11:15 am 11:15 Sunny 18 -7.7 7 -14.1 60 60 N 12 19 30.83 1044 10 16.0934 N/A
11:35 am 11:35 Sunny 19 -7.4 6 -14.4 58 58 NNE 9 15 30.8 1043 10 16.0934 N/A
11:55 am 11:55 Sunny 19 -7.4 5 -14.9 55 55 NNE 10 17 30.8 1043 10 16.0934 N/A
12:15 pm 12:15 Sunny 20 -6.7 4 -15.6 50 50 NNE 9 15 30.77 1042 10 16.0934 N/A
12:35 pm 12:35 Partly Cloudy 20 -6.5 2 -16.8 44 44 NE 9 15 30.77 1042 10 16.0934 N/A
12:55 pm 12:55 Mostly Cloudy 21 -5.9 1 -17.1 41 41 NNE 9 15 30.77 1042 10 16.0934 N/A
1:15 pm 13:15 Cloudy 21 -5.9 -1 -18.2 38 38 NE 10 17 30.77 1042 10 16.0934 N/A
1:35 pm 13:35 Cloudy 21 -6 0 -18 38 38 NE 9 15 30.77 1042 10 16.0934 N/A
1:55 pm 13:55 Cloudy 21 -6.1 0 -17.8 39 39 ENE 8 13 30.71 1040 10 16.0934 N/A
2:15 pm 14:15 Cloudy 21 -6.1 -1 -18.6 37 37 NE 7 11 30.71 1040 10 16.0934 N/A
2:35 pm 14:35 Cloudy 21 -6.1 -1 -18.3 38 38 ENE 8 13 30.71 1040 10 16.0934 N/A
2:55 pm 14:55 Cloudy 21 -6.2 -1 -18.5 37 37 ENE 7 11 30.71 1040 10 16.0934 N/A
3:15 pm 15:15 Cloudy 21 -6.2 0 -17.6 40 40 ENE 8 13 30.71 1040 10 16.0934 N/A
3:35 pm 15:35 Cloudy 20 -6.4 -1 -18.2 39 39 ENE 8 13 30.71 1040 10 16.0934 N/A
3:55 pm 15:55 Cloudy 20 -6.5 -1 -18.4 39 39 E 8 13 30.71 1040 10 16.0934 N/A
4:15 pm 16:15 Cloudy 20 -6.6 1 -17.4 42 42 E 6 9 30.74 1041 10 16.0934 N/A
4:35 pm 16:35 Cloudy 20 -6.6 1 -17 44 44 E 9 15 30.74 1041 10 16.0934 N/A
4:55 pm 16:55 Cloudy 20 -6.9 2 -16.7 46 46 E 7 11 30.74 1041 10 16.0934 N/A
5:15 pm 17:15 Cloudy 19 -7 2 -16.5 47 47 E 6 9 30.74 1041 10 16.0934 N/A
5:35 pm 17:35 Cloudy 19 -7.1 1 -17.2 45 45 E 8 13 30.74 1041 10 16.0934 N/A
5:55 pm 17:55 Cloudy 19 -7.3 1 -17.3 45 45 E 7 11 30.74 1041 10 16.0934 N/A
6:15 pm 18:15 Cloudy 19 -7.5 2 -16.6 49 49 E 7 11 30.74 1041 10 16.0934 N/A
6:35 pm 18:35 Cloudy 18 -7.6 3 -16 51 51 ENE 8 13 30.74 1041 10 16.0934 N/A
6:55 pm 18:55 Cloudy 18 -7.7 2 -16.4 50 50 E 8 13 30.74 1041 10 16.0934 N/A
7:15 pm 19:15 Cloudy 18 -7.8 3 -16.3 51 51 E 6 9 30.77 1042 10 16.0934 N/A
7:35 pm 19:35 Cloudy 18 -7.9 3 -15.9 53 53 E 7 11 30.77 1042 10 16.0934 N/A
7:55 pm 19:55 Cloudy 18 -8 5 -15.2 57 57 ESE 7 11 30.77 1042 10 16.0934 N/A
8:15 pm 20:15 Cloudy 17 -8.1 5 -15.2 57 57 E 7 11 30.74 1041 10 16.0934 N/A
8:35 pm 20:35 Cloudy 17 -8.2 4 -15.3 57 57 ESE 7 11 30.77 1042 10 16.0934 N/A
8:55 pm 20:55 Cloudy 17 -8.3 5 -15 59 59 E 9 15 30.74 1041 10 16.0934 N/A
9:15 pm 21:15 Cloudy 17 -8.5 5 -15 60 60 E 8 13 30.74 1041 10 16.0934 N/A
9:35 pm 21:35 Cloudy 17 -8.5 5 -14.8 61 61 ESE 8 13 30.77 1042 10 16.0934 N/A
9:55 pm 21:55 Cloudy 17 -8.5 5 -14.8 61 61 ESE 7 11 30.74 1041 10 16.0934 N/A
10:15 pm 22:15 Cloudy 17 -8.5 6 -14.7 61 61 ESE 7 11 30.77 1042 10 16.0934 N/A
10:35 pm 22:35 Cloudy 17 -8.5 6 -14.6 62 62 ESE 8 13 30.74 1041 10 16.0934 N/A
10:55 pm 22:55 Cloudy 17 -8.5 6 -14.6 62 62 ESE 8 13 30.74 1041 10 16.0934 N/A
11:15 pm 23:15 Cloudy 17 -8.5 6 -14.6 62 62 SE 9 15 30.74 1041 10 16.0934 N/A
11:35 pm 23:35 Cloudy 17 -8.5 5 -14.9 60 60 SE 8 13 30.74 1041 10 16.0934 N/A
11:55 pm 23:55 Cloudy 16 -8.7 5 -14.8 62 62 SE 9 15 30.77 1042 10 16.0934 N/A

Powered by AerisWeather